Terminal Aerodrome Forecast
Issued by NWS

Home | Current Version | Previous Version | Text Only | Print | Product List | Glossary On
Versions: 1 2 3 4 5 6 7 8 9 10 11 12 13 14 15 16 17 18 19 20
494
FTUS43 KOAX 220524
TAFBFF
TAF
KBFF 220524Z 2206/2306 10006KT P6SM SKC
     FM220800 11007KT 1SM BR BKN012
     FM221600 13008KT P6SM SCT025
     FM221800 16007KT P6SM SKC=

USA.gov is the U.S. government's official web portal to all federal, state and local government web resources and services.